TimeEST,TemperatureF,Dew PointF,Humidity,Sea Level PressureIn,VisibilityMPH,Wind Direction,Wind SpeedMPH,Gust SpeedMPH,PrecipitationIn,Events,Conditions,WindDirDegrees,DateUTC
12:53 AM,73.9,70.0,87,29.98,10.0,South,6.9,-,N/A,,Partly Cloudy,170,2012-12-29 05:53:00
1:53 AM,75.0,70.0,84,29.96,10.0,South,9.2,-,N/A,,Partly Cloudy,170,2012-12-29 06:53:00
2:53 AM,75.0,70.0,84,29.94,10.0,South,9.2,-,N/A,,Scattered Clouds,170,2012-12-29 07:53:00
3:53 AM,75.0,70.0,84,29.95,10.0,South,9.2,-,N/A,,Scattered Clouds,180,2012-12-29 08:53:00
4:53 AM,73.9,70.0,87,29.96,10.0,South,6.9,-,N/A,,Partly Cloudy,180,2012-12-29 09:53:00
5:53 AM,73.0,70.0,90,29.97,10.0,South,5.8,-,N/A,,Partly Cloudy,190,2012-12-29 10:53:00
6:53 AM,73.0,70.0,90,30.01,10.0,SW,4.6,-,N/A,,Partly Cloudy,220,2012-12-29 11:53:00
7:53 AM,73.0,71.1,93,30.01,10.0,South,5.8,-,N/A,,Partly Cloudy,180,2012-12-29 12:53:00
8:53 AM,75.0,71.1,87,30.04,10.0,SSW,8.1,-,N/A,,Partly Cloudy,210,2012-12-29 13:53:00
9:53 AM,79.0,71.1,77,30.03,10.0,South,12.7,-,N/A,,Scattered Clouds,190,2012-12-29 14:53:00
10:47 AM,80.6,71.6,74,30.03,10.0,SSW,16.1,23.0,N/A,,Scattered Clouds,210,2012-12-29 15:47:00
10:53 AM,81.0,71.1,72,30.03,10.0,SW,13.8,23.0,N/A,,Mostly Cloudy,220,2012-12-29 15:53:00
11:53 AM,81.0,71.1,72,30.00,10.0,SW,11.5,18.4,N/A,,Scattered Clouds,230,2012-12-29 16:53:00
12:53 PM,82.0,69.1,65,29.98,10.0,WSW,10.4,19.6,N/A,,Mostly Cloudy,250,2012-12-29 17:53:00
1:53 PM,82.9,70.0,65,29.96,10.0,WSW,9.2,17.3,N/A,,Mostly Cloudy,250,2012-12-29 18:53:00
2:53 PM,82.0,70.0,67,29.95,10.0,WSW,11.5,20.7,N/A,,Mostly Cloudy,240,2012-12-29 19:53:00
3:53 PM,80.1,70.0,71,29.94,10.0,WSW,10.4,-,N/A,,Partly Cloudy,240,2012-12-29 20:53:00
4:53 PM,80.1,68.0,67,29.95,10.0,WSW,11.5,-,N/A,,Partly Cloudy,250,2012-12-29 21:53:00
5:53 PM,78.1,68.0,71,29.96,10.0,WSW,8.1,-,N/A,,Scattered Clouds,240,2012-12-29 22:53:00
6:53 PM,77.0,70.0,79,29.99,10.0,WSW,6.9,-,N/A,,Clear,240,2012-12-29 23:53:00
7:53 PM,75.9,70.0,82,30.01,10.0,West,10.4,-,N/A,,Partly Cloudy,260,2012-12-30 00:53:00
8:53 PM,73.9,70.0,87,30.04,10.0,West,10.4,-,N/A,,Partly Cloudy,260,2012-12-30 01:53:00
9:45 PM,71.6,66.2,83,30.06,10.0,NW,15.0,21.9,N/A,,Mostly Cloudy,310,2012-12-30 02:45:00
9:53 PM,71.1,64.0,78,30.06,10.0,WNW,15.0,21.9,N/A,,Scattered Clouds,300,2012-12-30 02:53:00
10:53 PM,68.0,60.1,76,30.09,10.0,NW,10.4,25.3,N/A,,Clear,310,2012-12-30 03:53:00
11:53 PM,64.0,54.0,70,30.10,10.0,NW,11.5,18.4,N/A,,Clear,310,2012-12-30 04:53:00